Regional Weather Roundup
Issued by NWS Grand Forks, ND

Home | Current Version | Previous Version | Graphics & Text | Print | Product List | Glossary On
Versions: 1 2 3 4 5 6 7 8 9 10 11 12 13 14 15 16 17 18 19 20 21 22 23 24 25 26 27 28 29 30 31 32 33 34 35 36 37 38 39 40 41 42 43 44 45 46 47 48 49 50
000
ASUS43 KFGF 211731
RWRFGF
PRAIRIE TO PINES  WEATHER ROUNDUP
NATIONAL WEATHER SERVICE EASTERN NORTH DAKOTA/GRAND FORKS ND
1100 AM CST TUE FEB 21 2017

 **SATELLITE DATA USED TO AUGMENT SKY COVER AT AUTOMATED STATIONS**
 *****  WEATHER ACROSS EASTERN NORTH DAKOTA  *****

CITY           SKY/WX    TMP DP  RH WIND       PRES   REMARKS
GRAND FORKS    FAIR      37  31  78 S6        29.67F
GRAND FRKS AFB MOSUNNY   37  35  92 SW3       29.68S
DEVILS LAKE    FAIR      37  32  82 CALM      29.66S
FARGO          FAIR      41  35  79 S9        29.67F
WAHPETON ARPT    N/A     43  36  75 S6        29.70R
$$

 ***** WEATHER ACROSS CENTRAL AND WESTERN NORTH DAKOTA  *****

CITY           SKY/WX    TMP DP  RH WIND       PRES   REMARKS
BISMARCK       FAIR      44  32  62 S3        29.70S
MINOT          FAIR      44  33  65 SW9       29.64S
JAMESTOWN      FAIR      43  34  70 W16       29.66R
MINOT AFB      FAIR      39  33  79 W7        29.64S
GARRISON         N/A     39  32  76 SW6       29.67R
WILLISTON      FAIR      39  32  76 SW6       29.66S
DICKINSON      FAIR      48  32  53 W9        29.68S
HETTINGER      FAIR      57  33  40 W8        29.73S
$$

 *****  OTHER AIRPORT OBSERVATIONS IN OUR AREA  *****

CITY           SKY/WX    TMP DP  RH WIND       PRES   REMARKS
WALHALLA       NOT AVBL
GRAFTON AIRPOR FAIR      34  34 100 NE6       29.71S FOG
VALLEY CITY AR FAIR      39  39 100 W7        29.68S
CANDO          NOT AVBL
CAVALIER APRT  FOG       32  32 100 CALM      29.71S VSB<1/4
GWINNER        FAIR      45  39  81 SW10      29.69S
SHEYENNE NWR     N/A     45  37  73 W9        29.95S
ROLLA          FAIR      32  32 100 CALM      29.68S
 ***** THE ABOVE OBSERVATIONS ARE NON NWS ARE NOT QUALITY
       CONTROLLED AND MAY MIS-REPORT RAIN FOR SNOW...
$$

  *****  WEATHER ACROSS NORTHERN MINNESOTA  *****

CITY           SKY/WX    TMP DP  RH WIND       PRES   REMARKS
FLAG ISLAND    CLOUDY    30  30 100 S6        29.71F WCI  24
WARROAD        FOG       34  28  80 E5        29.72S VSB 1/2
ROSEAU         FOG       32  28  86 E8        29.71S VSB<1/4 WCI  25
HALLOCK        FOG       34  34 100 SE5       29.70S VSB 1/4
THF RVR FALLS  FAIR      38  35  89 E8        29.69F
BAUDETTE       CLOUDY    34  31  88 SE6       29.72F
WASKISH        CLOUDY    37  37 100 SE7       29.72F FOG
CROOKSTON      FAIR      41  39  93 SE5       29.68S
STEPHEN NDAWN    N/A     36  36 100 E3          N/A
GREENBUSH NDAW   N/A     30  30 100 E5          N/A
$$
  *****  WEATHER ACROSS CENTRAL AND WEST MINNESOTA  *****

CITY           SKY/WX    TMP DP  RH WIND       PRES   REMARKS
FOSSTON        FAIR      50  46  87 CALM      29.67F
BEMIDJI        FAIR      39  35  84 E7        29.70F
PARK RAPIDS    FAIR      41  32  70 SE7       29.70F
ELBOW LAKE     FAIR      46  40  78 S12       29.71F
WADENA         FAIR      43  36  75 S10       29.69F
DETROIT LAKES  FAIR      43  36  75 S10       29.68F
MOORHEAD       FAIR      41  34  75 S7        29.69S
FERGUS FALLS   FAIR      45  37  76 S12       29.73F
MORRIS MN      FAIR      48  43  81 S12       29.71F
STAPLES        FAIR      43  34  70 S13       29.71F
$$
  *****  WEATHER ELSEWHERE ACROSS MINNESOTA  *****

CITY           SKY/WX    TMP DP  RH WIND       PRES   REMARKS
DULUTH         FAIR      37  35  92 SW7       29.81F
INTRNTL FALLS  CLOUDY    36  32  85 S5        29.73F
ELY            CLOUDY    36  34  93 SW6       29.78S
CLOQUET        FAIR      37  34  87 SW5       29.81F
WHEATON        FAIR      50  39  66 S10       29.72R
BRAINERD       FAIR      41  37  86 SE6       29.77F
HIBBING        CLOUDY    34  34 100 CALM      29.78F
ALEXANDRIA     FAIR      47  37  68 S16       29.73F
SAINT CLOUD    FAIR      41  39  93 SE12      29.78F
MINNEAPOLIS    FAIR      46  38  73 VRB5      29.86F
$$

  *****  WEATHER ACROSS SOUTH DAKOTA  *****

CITY           SKY/WX    TMP DP  RH WIND       PRES   REMARKS
SIOUX FALLS    PTSUNNY   52  37  56 SW10G17   29.81F
BROOKINGS      FAIR      51  36  56 SW14      29.76F
WATERTOWN      FAIR      47  37  68 SW12      29.74S
HURON          FAIR      52  37  56 S7        29.75S
SISSETON         N/A     52  37  56 CALM      29.69S
ABERDEEN       FAIR      45  35  68 S7        29.72S
MITCHELL       FAIR      57  33  40 SW9       29.78F
PIERRE         FAIR      58  35  42 W10       29.74R
MOBRIDGE       FAIR      50  34  54 CALM      29.69S
RAPID CITY     FAIR      65  32  29 W20G29    29.75S
$$

  *****  SOME WEATHER IN NEARBY STATES *****

CITY           SKY/WX    TMP DP  RH WIND       PRES   REMARKS
GLASGOW MT     NOT AVBL
GREAT FALLS MT CLOUDY    40  33  76 CALM      29.60F
CHEYENNE WY    FAIR      57  22  25 W44G53    30.04F
SCOTTSBLUFF NE FAIR      66  28  24 W35G41    29.90F
OMAHA NE       FAIR      56  43  61 S6        29.98F
DES MOINES IA  FAIR      56  45  66 S8        29.98F
DAVENPORT IA   FAIR      55  46  71 SE3       29.97S
CHICAGO IL     CLOUDY    60  55  83 SW7       29.94S
EAU CLAIRE WI  FAIR      42  37  82 CALM      29.91S
LA CROSSE WI   FAIR      48  39  71 S6        29.94R
$$

  *****  SOME NATIONAL WEATHER *****

CITY           SKY/WX    TMP DP  RH WIND       PRES   REMARKS
LA GUARDIA NY  CLOUDY    46  26  45 SW12      30.34F
RALEIGH NC     CLOUDY    60  33  36 E6        30.25F
ATLANTA GA     PTSUNNY   66  54  65 SE8       30.10F
NEW ORLEANS LA PTSUNNY   65  59  81 W3        29.97F
OKLAHOMA CITY  FAIR      60  45  57 NW17      30.03R
ALBUQUERQUE NM FAIR      54  33  45 N14       30.36S
SALT LAKE CITY FAIR      56  38  50 S29G41    30.04S
LOS ANGELES CA LGT RAIN  60  57  89 NE3       30.32S
BOISE ID       FAIR      52  31  44 SW21G31   29.89R
SEATTLE WA     LGT RAIN  43  41  93 N7        29.81R FOG
$$

*** WEATHER ACROSS MANITOBA...SASKATCHEWAN AND ONTARIO ***
                ***ONTARIO***

CITY           SKY/WX    TMP DP  RH WIND       PRES   REMARKS
GERALDTON      CLOUDY    36  32  87 W16G26    29.60R FOG
THUNDER BAY    PTSUNNY   39  32  75 W16G25    29.74R
SIOUX LOOKOUT  CLOUDY    34  28  80 W9        29.69R
TORONTO        CLOUDY    39  28  65 SE5       29.98F
BIG TROUT LK   CLOUDY    28  27  93 W20G28    29.38R WCI  15
PICKLE LAKE    FLURRIES  32  28  86 W15G28    29.55R WCI  22
DRYDEN         CLOUDY    36  32  87 W14       29.69F
KENORA         CLOUDY    34  32  93 SW7       29.70F
$$
                *** MANITOBA***

CITY           SKY/WX    TMP DP  RH WIND       PRES   REMARKS
BRANDON        PTSUNNY   34  30  86 E5        29.69S
DAUPHIN        MOSUNNY   37  30  75 W6        29.69S
ISLAND LAKE    FLURRIES  28  25  86 W16       29.53  WCI  17
PILOT MOUND      N/A     34  32  93 E3          N/A
THE PAS        CLOUDY    32  23  69 W13       29.65S WCI  22
THOMPSON       FLURRIES  18  14  86 W15       29.53  WCI   3
WINNIPEG       LGT SNOW  34  32  93 SW6       29.72R
LYNN LAKE      FLURRIES  16  12  86 NW8       29.56R WCI   5
CHURCHILL      LGT SNOW  12   9  85 NE26      29.44S VSB 5/8 WCI  -8
GILLAM         FLURRIES  12   7  79 W18G25    29.43R WCI  -5
$$
                ***SASKATCHEWAN***

CITY           SKY/WX    TMP DP  RH WIND       PRES   REMARKS
ESTEVAN        PTSUNNY   36  32  87 SW6       29.62F
KINDERSLEY     PTSUNNY   32  27  80 NE2       29.70S
LLOYDMINSTER   CLOUDY    30  27  86 S7        29.69R WCI  23
PRINCE ALBERT  CLOUDY    32  25  74 W9        29.70R WCI  24
REGINA         LGT SNOW  34  30  86 NE10      29.66R FOG
YORKTON        CLOUDY    34  30  86 W5        29.68R
N. BATTLEFORD  CLOUDY    32  25  74 NE2       29.74R
LA RONGE       PTSUNNY   30  23  74 W10       29.65S WCI  21
SASKATOON      CLOUDY    34  25  69 VRB5      29.73R
SWIFT CURRENT  LGT SNOW  32  32 100 NE12      29.65R WCI  23
$$
NOTE: THESE ARE AUTOMATED STATIONS WITH LIMITED QUALITY CONTROL
      "FAIR" INDICATES FEW OR NO CLOUDS BELOW 12,000 FEET WITH NO
      SIGNIFICANT WEATHER AND/OR OBSTRUCTIONS TO VISIBILITY.
      SKY/WX - SKY CONDITION AND SIGNIFICANT WEATHER.
      TMP - AIR TEMPERATURE.    DP   - DEWPOINT TEMPERATURE.
      RH  - RELATIVE HUMIDITY.  PRES - PRESSURE.
      HX  - HEAT INDEX.         WCI  - WIND CHILL INDEX.
$




USA.gov is the U.S. government's official web portal to all federal, state and local government web resources and services.